#timestamp,LO_Frequency,Hit,StdDev 
1679612415.1,286047015.6,N
1679612416.0,286047015.6,N
1679612435.8,286047017.3,N
1679612455.6,286047025.4,Y
1679612475.5,286047033.4,P
1679612495.3,286047030.8,N
1679612515.2,286047020.6,N
1679612535.9,286047019.9,N
1679612555.7,286047014.6,N
1679612575.6,286047007.2,N
1679612595.4,286047004.0,N
1679612615.2,286047002.3,N
1679612635.1,286046999.9,N
1679612636.0,286046999.9,N
1679612655.8,286047001.5,N
1679612675.7,286047004.9,N
1679612695.5,286047008.0,N
1679612715.3,286047003.6,N
1679612735.2,286047003.2,N
1679612755.0,286047003.4,N
1679612755.9,286047003.4,N
1679612775.7,286047008.8,N
1679612795.6,286047006.1,N
1679612815.4,286047006.1,N
1679612835.3,286047005.0,N
1679612855.1,286047005.9,N
1679612856.0,286047005.9,N
1679612875.8,286047003.1,N
1679612895.7,286047002.9,N
1679612915.5,286047005.6,N
1679612935.3,286047006.4,N
1679612955.2,286047006.5,N
1679612975.0,286047006.3,N
1679612975.9,286047006.3,N
1679612995.8,286047004.5,N
1679613015.6,286047005.7,N
1679613035.4,286047007.1,N
1679613055.3,286047009.6,N
1679613075.1,286047010.4,Y
1679613095.9,286046997.6,P
1679613115.7,286046995.2,N
1679613135.5,286046995.0,N
1679613155.4,286047002.4,N
1679613175.2,286047002.9,N
1679613195.0,286047002.3,N
1679613195.9,286047002.3,N
1679613215.8,286047003.9,N
1679613235.6,286047020.1,Y
1679613255.5,286047021.7,P
1679613275.3,286047020.1,N
1679613295.1,286047012.7,N
1679613315.9,286047010.1,N
1679613335.7,286047006.0,N
1679613355.5,286047001.2,N
1679613375.4,286047000.2,N
1679613395.2,286046999.0,N
1679613415.1,286046998.4,N
1679613416.0,286046998.4,N
1679613435.8,286046998.2,N
1679613455.6,286047000.4,N
1679613475.5,286046998.4,N
1679613495.3,286047005.4,N
1679613515.1,286047003.6,N
1679613535.9,286047002.0,N
1679613555.7,286046999.7,N
1679613575.6,286047003.1,N
1679613595.4,286047003.3,N
1679613615.2,286047002.6,N
1679613635.1,286046999.9,N
1679613636.0,286046999.9,N
1679613655.8,286047002.8,N
1679613675.6,286046998.4,N
1679613695.5,286046996.5,N
1679613715.3,286047000.6,N
1679613735.2,286046996.9,N
1679613755.9,286046999.4,N
1679613775.7,286046998.7,N
1679613795.6,286046996.3,N
1679613815.4,286047006.1,N
1679613835.2,286047021.9,Y
1679613855.1,286047015.9,P
1679613856.0,286047015.9,N
1679613875.8,286047011.7,N
1679613895.7,286047010.0,N
1679613915.5,286047011.2,N
1679613935.3,286047009.4,N
1679613955.2,286047008.0,N
1679613975.0,286047003.9,N
1679613975.9,286047003.9,N
1679613995.7,286047001.6,N
1679614015.6,286047003.4,N
1679614035.4,286047001.9,N
1679614055.3,286047002.6,N
1679614075.1,286047000.9,N
1679614076.0,286047000.9,N
1679614095.8,286046999.3,N
1679614115.7,286047001.2,N
1679614135.5,286047002.8,N
1679614155.3,286047000.0,N
1679614175.2,286047007.6,N
1679614195.0,286047009.1,N
1679614195.9,286047009.1,N
1679614215.8,286047002.9,N
1679614235.6,286047006.6,N
1679614255.4,286047008.6,N
1679614275.3,286047008.9,N
1679614295.1,286047008.6,N
1679614315.8,286047004.1,N
1679614335.7,286047005.6,N
1679614355.5,286047003.9,N
1679614375.4,286047007.5,N
1679614395.2,286047016.9,Y
1679614415.0,286047006.8,P
1679614415.9,286047006.8,P
1679614435.8,286047001.7,P
1679614455.6,286047002.7,N
1679614475.4,286047000.0,N
1679614495.3,286047001.8,N
1679614515.1,286047001.8,N
1679614535.9,286047003.9,N
1679614555.7,286047002.7,N
1679614575.5,286047000.9,N
1679614595.4,286047002.7,N
1679614615.2,286047003.7,N
1679614635.0,286047001.6,N
1679614635.9,286047001.6,N
1679614655.8,286047006.0,N
1679614675.6,286047004.6,N
1679614695.5,286047000.0,N
1679614715.3,286046998.9,N
1679614735.1,286047000.8,N
1679614755.9,286046996.5,N
1679614775.7,286046995.9,N
1679614795.5,286046997.9,N
1679614815.4,286046993.9,N
1679614835.2,286046990.3,N
1679614855.1,286046993.9,N
1679614856.0,286046993.9,N
1679614875.8,286046999.1,N
1679614895.7,286047001.6,N
1679614915.5,286047002.7,N
1679614935.3,286047002.9,N
1679614955.2,286047009.1,N
1679614975.0,286047003.1,N
1679614975.9,286047003.1,N
1679614995.7,286047001.1,N
1679615015.6,286047000.0,N
1679615035.4,286047005.0,N
1679615055.3,286047001.4,N
1679615075.1,286047001.5,N
1679615076.0,286047001.5,N
1679615095.8,286047001.3,N
1679615115.7,286046998.8,N
1679615135.5,286046999.0,N
1679615155.3,286046999.6,N
1679615175.2,286046994.1,N
1679615195.0,286046995.8,N
1679615195.9,286046995.8,N
1679615215.8,286046999.2,N
1679615235.6,286047006.4,N
1679615255.4,286047005.7,N
1679615275.3,286047016.3,Y
1679615295.1,286047011.0,P
1679615315.8,286047016.4,N
1679615335.7,286047035.4,P
1679615355.5,286047038.1,N
1679615375.4,286047035.7,N
1679615395.2,286047038.9,N
1679615415.0,286047044.9,Y
1679615415.9,286047044.9,P
1679615435.8,286047017.0,N
1679615455.6,286047012.9,N
1679615475.5,286047021.5,N
1679615495.3,286047028.7,N
1679615515.1,286047026.7,N
1679615535.9,286047027.8,N
1679615555.7,286047024.8,N
1679615575.5,286047021.3,N
1679615595.4,286047022.2,N
1679615615.2,286047031.1,Y
1679615635.1,286047010.4,P
1679615636.0,286047010.4,N
1679615655.8,286047006.7,N
1679615675.6,286047005.9,N
1679615695.5,286047002.9,N
1679615715.3,286047003.0,N
1679615735.1,286047002.6,N
1679615755.9,286046996.0,N
1679615775.7,286046995.6,N
1679615795.6,286046998.8,N
1679615815.4,286047005.9,N
1679615835.2,286047010.2,N
1679615855.1,286047004.5,N
1679615856.0,286047004.5,N
1679615875.8,286047010.4,N
1679615895.6,286047004.9,N
1679615915.5,286047004.5,N
1679615935.3,286047011.6,N
1679615955.2,286046999.7,N
1679615975.9,286047003.2,N
1679615995.7,286047014.5,N
